Weather History for Triuchirapalli, India

Change the Weather History Date:

Saturday, September 21, 2013

  Actual Average Record
Temperature  
Mean Temperature 87 °F -  
Max Temperature 96 °F 88 °F 99 °F (2012)
Min Temperature 78 °F 77 °F 76 °F (2012)
Cooling Degree Days 22    
Growing Degree Days 37 (Base 50)    
Moisture  
Dew Point 70 °F    
Average Humidity 58    
Maximum Humidity 78    
Minimum Humidity 32    
Precipitation  
Precipitation 0.00 in - - ()
Sea Level Pressure  
Sea Level Pressure 29.67 in    
Wind  
Wind Speed 12 mph ()    
Max Wind Speed 21 mph    
Max Gust Speed 32 mph    
Visibility 4.1 miles    
Events      
Averages and records for this station are not official NWS values.
T = Trace of Precipitation, MM = Missing Value Source: Averaged Metar Reports

Daily Weather History Graph

Daily Weather History Graph

Search for Another Location

Airport:

Trip Planner

Search our weather history database for the weather conditions in past years. The results will help you decide how hot, cold, wet, or windy it might be!

Date:

Astronomy

Sep. 21, 2013 Rise Set
Actual Time 6:04 AM IST 6:11 PM IST
Civil Twilight 5:43 AM IST 6:33 PM IST
Nautical Twilight 5:18 AM IST 6:57 PM IST
Astronomical Twilight 4:54 AM IST 7:21 PM IST
Moon 7:36 PM IST (9/21) 7:26 AM IST (9/21)
Length of Visible Light 12h 49m
Length of Day
12h 07m
Waning Gibbous, 96% of the Moon is Illuminated
Sep 21
Waning Gibbous
Sep 27
Last Quarter
Oct 5
New
Oct 12
First Quarter
Oct 19
Full

Hourly Weather History & Observations

Time (IST) Temp. Heat Index Dew Point Humidity Pressure Visibility Wind Dir Wind Speed Gust Speed Precip Events Conditions
12:10 AM 82.4 °F 86.3 °F 69.8 °F 66% 29.68 in 3.7 mi West 15.0 mph 26.5 mph N/A   Mostly Cloudy
12:40 AM 82.4 °F 87.2 °F 71.6 °F 70% 29.68 in 3.7 mi West 11.5 mph 23.0 mph N/A   Mostly Cloudy
1:10 AM 82.4 °F 87.2 °F 71.6 °F 70% 29.68 in 3.7 mi West 11.5 mph 23.0 mph N/A   Mostly Cloudy
1:40 AM 82.4 °F 86.3 °F 69.8 °F 66% 29.68 in 3.7 mi West 11.5 mph - N/A   Mostly Cloudy
2:10 AM 80.6 °F 83.9 °F 69.8 °F 70% 29.65 in 3.7 mi West 10.4 mph - N/A   Mostly Cloudy
2:30 AM 82 °F - 69 °F 58% 29.66 in 2 mi WSW 10.4 mph - -   Haze
2:40 AM 80.6 °F 83.9 °F 69.8 °F 70% 29.65 in 3.7 mi West 11.5 mph - N/A   Mostly Cloudy
3:10 AM 80.6 °F 83.9 °F 69.8 °F 70% 29.65 in 3.7 mi WNW 12.7 mph - N/A   Mostly Cloudy
3:40 AM 80.6 °F 83.9 °F 69.8 °F 70% 29.65 in 3.7 mi WNW 12.7 mph - N/A   Scattered Clouds
4:10 AM 80.6 °F 83.9 °F 69.8 °F 70% 29.65 in 3.7 mi West 10.4 mph - N/A   Scattered Clouds
4:40 AM 80.6 °F 83.9 °F 69.8 °F 70% 29.68 in 3.7 mi West 8.1 mph - N/A   Scattered Clouds
5:10 AM 80.6 °F 84.6 °F 71.6 °F 74% 29.68 in 3.7 mi West 9.2 mph - N/A   Scattered Clouds
5:30 AM 80 °F - 70 °F 65% 29.67 in 2 mi West 11.5 mph - -   Haze
5:40 AM 78.8 °F - 71.6 °F 78% 29.68 in 3.7 mi West 10.4 mph - N/A   Scattered Clouds
6:10 AM 78.8 °F - 71.6 °F 78% 29.68 in 3.7 mi West 9.2 mph - N/A   Scattered Clouds
6:40 AM 78.8 °F - 71.6 °F 78% 29.68 in 3.7 mi West 10.4 mph - N/A   Scattered Clouds
7:10 AM 80.6 °F 84.6 °F 71.6 °F 74% 29.71 in 3.7 mi West 10.4 mph - N/A   Mostly Cloudy
7:40 AM 80.6 °F 84.6 °F 71.6 °F 74% 29.71 in 3.7 mi WSW 12.7 mph - N/A   Mostly Cloudy
8:10 AM 82.4 °F 87.2 °F 71.6 °F 70% 29.71 in 3.7 mi West 9.2 mph - N/A   Mostly Cloudy
8:40 AM 84.2 °F 89.6 °F 71.6 °F 66% 29.74 in 3.7 mi West 10.4 mph - N/A   Mostly Cloudy
9:10 AM 86.0 °F 93.4 °F 73.4 °F 66% 29.74 in 3.7 mi West 12.7 mph - N/A   Scattered Clouds
9:40 AM 87.8 °F 95.6 °F 73.4 °F 62% 29.74 in 3.7 mi West 12.7 mph - N/A   Scattered Clouds
10:10 AM 87.8 °F 95.6 °F 73.4 °F 62% 29.74 in 3.7 mi West 12.7 mph 24.2 mph N/A   Scattered Clouds
10:40 AM 89.6 °F 98.2 °F 73.4 °F 59% 29.71 in 3.7 mi West 13.8 mph 25.3 mph N/A   Scattered Clouds
11:10 AM 89.6 °F 98.2 °F 73.4 °F 59% 29.71 in 3.7 mi West 12.7 mph 24.2 mph N/A   Scattered Clouds
11:40 AM 89.6 °F 98.2 °F 73.4 °F 59% 29.68 in 3.7 mi West 13.8 mph 25.3 mph N/A   Scattered Clouds
12:10 PM 91.4 °F 100.1 °F 73.4 °F 55% 29.68 in 3.7 mi West 18.4 mph 29.9 mph N/A   Scattered Clouds
12:40 PM 93.2 °F 100.5 °F 71.6 °F 49% 29.65 in 4.3 mi West 18.4 mph 29.9 mph N/A   Scattered Clouds
1:10 PM 95.0 °F 103.2 °F 71.6 °F 47% 29.65 in 4.3 mi West 20.7 mph 32.2 mph N/A   Scattered Clouds
1:40 PM 96.8 °F 105.1 °F 71.6 °F 44% 29.65 in 4.3 mi West 17.3 mph 28.8 mph N/A   Scattered Clouds
2:10 PM 96.8 °F 105.1 °F 71.6 °F 44% 29.62 in 6.2 mi West 18.4 mph 29.9 mph N/A   Scattered Clouds
2:30 PM 96 °F - 69 °F 32% 29.61 in 6 mi WNW 19.6 mph - -   Partly Cloudy
2:40 PM 96.8 °F 105.1 °F 71.6 °F 44% 29.62 in 6.2 mi West 19.6 mph 31.1 mph N/A   Scattered Clouds
3:10 PM 96.8 °F 105.1 °F 71.6 °F 44% 29.62 in 6.2 mi West 18.4 mph 29.9 mph N/A   Scattered Clouds
3:40 PM 95.0 °F 103.2 °F 71.6 °F 47% 29.62 in 6.2 mi West 17.3 mph 28.8 mph N/A   Scattered Clouds
4:10 PM 95.0 °F 103.2 °F 71.6 °F 47% 29.62 in 6.2 mi West 17.3 mph 28.8 mph N/A   Scattered Clouds
4:40 PM 93.2 °F 100.5 °F 71.6 °F 49% 29.62 in 6.2 mi WNW 16.1 mph 27.6 mph N/A   Scattered Clouds
5:10 PM 93.2 °F 100.5 °F 71.6 °F 49% 29.62 in 6.2 mi West 15.0 mph 26.5 mph N/A   Scattered Clouds
5:30 PM 92 °F - 67 °F 35% 29.62 in 6 mi West 16.1 mph - -   Partly Cloudy
5:40 PM 93.2 °F 98.8 °F 69.8 °F 46% 29.62 in 6.2 mi West 15.0 mph 26.5 mph N/A   Scattered Clouds
6:10 PM 91.4 °F 96.8 °F 69.8 °F 49% 29.65 in 5.0 mi West 17.3 mph 28.8 mph N/A   Scattered Clouds
6:40 PM 89.6 °F 93.4 °F 68.0 °F 49% 29.65 in 3.7 mi WNW 15.0 mph 26.5 mph N/A   Partly Cloudy
7:10 PM 87.8 °F 91.4 °F 68.0 °F 52% 29.65 in 3.7 mi WNW 13.8 mph 25.3 mph N/A   Partly Cloudy
7:40 PM 87.8 °F 91.4 °F 68.0 °F 52% 29.68 in 3.7 mi WNW 16.1 mph 27.6 mph N/A   Partly Cloudy
8:10 PM 86.0 °F 88.2 °F 66.2 °F 51% 29.68 in 3.7 mi West 17.3 mph 28.8 mph N/A   Scattered Clouds
8:30 PM 87 °F - 65 °F 38% 29.69 in 2 mi WNW 16.1 mph - -   Haze
8:40 PM 86.0 °F 88.2 °F 66.2 °F 51% 29.71 in 3.7 mi WNW 15.0 mph 26.5 mph N/A   Scattered Clouds
9:10 PM 86.0 °F 87.3 °F 64.4 °F 48% 29.71 in 3.7 mi WNW 11.5 mph 23.0 mph N/A   Scattered Clouds
9:40 PM 86.0 °F 87.3 °F 64.4 °F 48% 29.71 in 3.7 mi WNW 11.5 mph 23.0 mph N/A   Scattered Clouds
10:10 PM 84.2 °F 86.6 °F 66.2 °F 55% 29.71 in 3.7 mi WNW 11.5 mph 23.0 mph N/A   Scattered Clouds
10:40 PM 84.2 °F 86.6 °F 66.2 °F 55% 29.71 in 3.7 mi West 9.2 mph 20.7 mph N/A   Scattered Clouds
11:10 PM 84.2 °F 86.6 °F 66.2 °F 55% 29.71 in 3.7 mi West 9.2 mph 20.7 mph N/A   Scattered Clouds
11:30 PM 83 °F - 68 °F 53% 29.72 in 2 mi WNW 13.8 mph - -   Haze
11:40 PM 82.4 °F 84.6 °F 66.2 °F 58% 29.71 in 3.7 mi West 9.2 mph 20.7 mph N/A   Scattered Clouds